Current weather by "City, St" or "zip code"  
 

Current Conditions: Waco, Waco Regional Airport, TX

Overcast


62.0 F

Last Updated on Jan 22 2019, 10:51 am CST
Humidity: 75%
Wind Speed: S 17.3 mph
Barometer 29.82 in
Dewpoint: 54.0 F
Visibility: 10.00 mi
Precip: --
Heat Index: NA
Wind Chill: 60 F
Current conditions at:

Waco, Waco Regional Airport, TX (KACT)

Lat: 31.61 Lon: 97.227

Local Radar Image active severe weather and emergency alerts image image weather storm and storm spotter reports image weather observation monitoring service image
Local
Radar
Active
Alerts
Storm Reports Obs
Monitoring

iAlert Weather and Emergency Alert Notification Services:


ialert severe weather and emergency alerts by text message and email ialert daily weather forecast by email and text message service ialert real-time weather-observation monitoring and alert notification service ialert storm report monitoring alert notification

Observation History for Waco, Waco Regional Airport, TX


Time Wind
(mph)
Vis
(mi)
Weather Precip (in) Temperature (F) Relative
Humidity
Wind
Chill
(°F)
Heat
Index
(°F)
Pressure
Air Dwpt altimeter
(in)
sea level
(mb)
10:51 am CST S 17.3 10.00 Overcast -- 62.0 54.0 75% 60 NA 29.82 1009.4
9:51 am CST S 19.6 G 26.5 10.00 Overcast -- 60.0 53.1 78% 57 NA 29.83 1009.8
8:51 am CST S 15.0 10.00 Overcast -- 58.0 53.1 84% 55 NA 29.83 1009.7
7:51 am CST S 18.4 10.00 Overcast -- 57.0 52.0 83% 53 NA 29.84 1010.2
6:51 am CST S 17.3 10.00 Overcast -- 56.0 51.1 84% 52 NA 29.83 1009.8
5:51 am CST S 17.3 10.00 Overcast -- 56.0 51.1 84% 52 NA 29.84 1010.0
4:51 am CST S 17.3 10.00 Overcast -- 56.0 51.1 84% 52 NA 29.85 1010.4
3:51 am CST S 15.0 G 26.5 10.00 Overcast -- 56.0 50.0 81% 52 NA 29.85 1010.2
2:51 am CST S 16.1 10.00 Overcast -- 55.0 48.9 80% 51 NA 29.88 1011.5
1:51 am CST S 20.7 10.00 Overcast and Breezy -- 55.0 48.9 80% 50 NA 29.90 1012.1
12:51 am CST S 18.4 G 26.5 10.00 Overcast -- 55.0 48.0 77% 50 NA 29.93 1013.2
11:51 pm CST S 16.1 10.00 Overcast -- 55.0 48.0 77% 51 NA 29.94 1013.7
10:51 pm CST S 18.4 G 27.6 10.00 Overcast -- 56.0 48.0 75% 52 NA 29.94 1013.7
9:51 pm CST S 20.7 G 28.8 10.00 Mostly Cloudy and Breezy -- 56.0 46.9 72% 51 NA 29.93 1013.4
8:51 pm CST S 19.6 G 28.8 10.00 Fair -- 55.0 46.0 72% 50 NA 29.94 1013.8
7:51 pm CST S 20.7 G 28.8 10.00 Fair and Breezy -- 56.0 46.0 70% 51 NA 29.95 1014.1
6:51 pm CST S 18.4 10.00 Fair -- 57.0 45.0 64% 53 NA 29.96 1014.6
5:51 pm CST S 20.7 10.00 Fair and Breezy -- 59.0 45.0 60% 55 NA 29.97 1014.7
4:51 pm CST S 18.4 10.00 Fair -- 60.0 44.1 56% 57 NA 29.99 1015.4
3:51 pm CST S 23.0 G 28.8 10.00 Fair and Breezy -- 61.0 43.0 52% 58 NA 29.99 1015.5
2:51 pm CST S 25.3 G 28.8 10.00 Fair and Breezy -- 62.0 43.0 50% 59 NA 30.02 1016.4
1:51 pm CST S 24.2 10.00 Fair and Breezy -- 60.0 43.0 53% 56 NA 30.05 1017.5
12:51 pm CST S 20.7 10.00 Fair and Breezy -- 57.0 43.0 60% 53 NA 30.09 1018.9
11:51 am CST S 20.7 10.00 Fair and Breezy -- 53.0 42.1 66% 47 NA 30.16 1021.0

Regional Weather Observation


Waco-James Connally Airport, TX (KCNW)

Overcast
63.0 F

Waco, Mc Gregor Executive Airport, TX (KPWG)

Overcast and Breezy
63.0 F

Gatesville, City-County Airport, TX (KGOP)

Mostly Cloudy
61.0 F

Hillsboro, Hillsboro Municipal Airport, TX (KINJ)

Overcast
59.0 F

Temple, Draughon-Miller Central Texas Regional Airport, TX (KTPL)

Overcast
62.0 F

Fort Hood, Hood AAF Ft Hood, TX (KHLR)

Overcast
60.0 F

Advertise Here


Advertise Here